User: anonymous   Login
Location: Caltech
(34.1382°N, 118.1253°W)
Time: 05:15:25
(UTC-07:00)
Language:

Cosmos 44 Rocket - Orbit

View from above orbital plane
View from above orbital plane
View from above satellite
View from above satellite

Ground track
Ground track

The orbit data is extracted from the following two-line orbital elements,

1 00877U 64053B   15148.79994747  .00000166  00000-0  34300-4 0  9992
2 00877 065.0796 324.6692 0055847 033.0525 327.4541 14.59117850692022
Epoch (UTC): 28 May 2015 19:11:55
Eccentricity: 0.0055847
inclination: 65.0796°
perigee height: 656 km
apogee height: 735 km
right ascension of ascending node: 324.6692°
argument of perigee: 33.0525°
revolutions per day: 14.59117850
mean anomaly at epoch: 327.4541°
orbit number at epoch: 69202

The dashed part of the orbit path shows where the satellite is in the earth's shadow,  

DLR